This demonstration page uses our WeatherBlox Daily Observations layout. Learn more.

Left ArrowRight Arrow

39.51506, -84.39828

Hourly Observations for May 26, 2016

Temp ( °F °C ) Dew Point ( °F °C ) Humidity (%) Winds ( mph kmh ) Pressure ( in mb ) Visibility ( mi km ) Precip ( " mm )
12:15 am 00:15 Clear 71 21.6 61 16.1 71 71 SSW 5 7 30.03 1017 10 16.0934 N/A
12:35 am 00:35 Clear 69 20.8 60 15.5 72 72 SSW 7 11 30.03 1017 10 16.0934 N/A
12:55 am 00:55 Clear 72 22.3 62 16.5 70 70 SSW 7 11 30.03 1017 10 16.0934 N/A
1:15 am 01:15 Clear 69 20.8 60 15.6 72 72 SSW 5 7 30.03 1017 10 16.0934 N/A
1:35 am 01:35 Clear 69 20.8 61 16 74 74 N N/A 30.03 1017 10 16.0934 N/A
1:55 am 01:55 Clear 69 20.8 62 16.7 77 77 SSW 3 6 30.03 1017 10 16.0934 N/A
2:15 am 02:15 Clear 69 20.4 62 16.5 78 78 SW 3 6 30.03 1017 10 16.0934 N/A
2:35 am 02:35 Clear 69 20.8 63 17 79 79 SW 3 6 30.03 1017 10 16.0934 N/A
2:55 am 02:55 Clear 69 20.8 62 16.7 77 77 SSW 3 6 30.03 1017 10 16.0934 N/A
3:15 am 03:15 Clear 69 20.8 63 17 79 79 N N/A 30.03 1017 10 16.0934 N/A
3:35 am 03:35 Clear 69 20.8 63 17 79 79 SW 3 6 30.03 1017 10 16.0934 N/A
3:55 am 03:55 Clear 69 20.8 63 17 79 79 N N/A 30.03 1017 10 16.0934 N/A
4:15 am 04:15 Clear 69 20.8 62 16.9 78 78 N N/A 30.03 1017 10 16.0934 N/A
4:35 am 04:35 Clear 69 20.8 63 17.1 79 79 N N/A 30.03 1017 10 16.0934 N/A
4:55 am 04:55 Partly Cloudy 68 20.1 61 16.3 79 79 N N/A 30.03 1017 10 16.0934 N/A
5:15 am 05:15 Mostly Cloudy 67 19.5 61 16 80 80 N N/A 30.03 1017 10 16.0934 N/A
5:35 am 05:35 Partly Cloudy 67 19.5 61 16.2 81 81 N N/A 30.03 1017 10 16.0934 N/A
5:55 am 05:55 Partly Cloudy 67 19.5 61 16 80 80 SSW 5 7 30.03 1017 10 16.0934 N/A
6:15 am 06:15 Partly Cloudy 69 20.8 63 17.1 79 79 SSW 6 9 30.03 1017 10 16.0934 N/A
6:35 am 06:35 Cloudy with Drizzle 69 20.8 63 17 79 79 SSW 6 9 30.03 1017 10 16.0934 N/A
6:55 am 06:55 Cloudy 69 20.8 63 17 79 79 SSW 7 11 30.03 1017 10 16.0934 N/A
7:15 am 07:15 Mostly Cloudy 69 20.8 62 16.5 77 77 S 7 11 30.03 1017 10 16.0934 N/A
7:35 am 07:35 Mostly Cloudy 69 20.8 61 16.3 76 76 SSW 8 13 30.06 1018 10 16.0934 N/A
7:55 am 07:55 Mostly Cloudy 69 20.8 61 16.1 75 75 WSW 8 13 30.06 1018 10 16.0934 N/A
8:15 am 08:15 Partly Cloudy 71 21.9 61 16.3 71 71 SSW 10 17 30.06 1018 10 16.0934 N/A
8:35 am 08:35 Partly Cloudy 74 23.6 63 17.3 68 68 SSW 10 17 30.06 1018 10 16.0934 N/A
8:55 am 08:55 Mostly Cloudy 71 21.7 61 16 70 70 SSW 12 19 30.06 1018 10 16.0934 N/A
9:15 am 09:15 Cloudy 72 22.3 62 16.6 70 70 SSW 8 13 30.06 1018 10 16.0934 N/A
9:35 am 09:35 Partly Cloudy 74 23.6 63 17.1 67 67 SW 10 17 30.06 1018 10 16.0934 N/A
9:55 am 09:55 Partly Cloudy 74 23.6 62 16.6 65 65 SSW 12 19 30.03 1017 10 16.0934 N/A
10:15 am 10:15 Mostly Cloudy 74 23.6 62 16.6 65 65 SSW 9 15 30.03 1017 10 16.0934 N/A
10:35 am 10:35 Cloudy 74 23.6 62 16.6 65 65 SSW 9 15 30.03 1017 10 16.0934 N/A
10:55 am 10:55 Cloudy 75 23.7 62 16.6 65 65 SSW 10 17 30.03 1017 10 16.0934 N/A
11:15 am 11:15 Mostly Cloudy 77 25.1 62 16.6 59 59 SSW 14 22 30.06 1018 10 16.0934 N/A
11:35 am 11:35 Cloudy 77 25.1 62 16.5 59 59 SSW 15 24 30.03 1017 10 16.0934 N/A
11:55 am 11:55 Cloudy 77 25.1 61 16.3 58 58 S 14 22 30.06 1018 10 16.0934 N/A
12:15 pm 12:15 Cloudy 77 25.1 61 16.2 58 58 SSW 15 24 30.06 1018 10 16.0934 N/A
12:35 pm 12:35 Cloudy 77 25.1 61 16.1 57 57 SW 8 13 30.03 1017 10 16.0934 N/A
12:55 pm 12:55 Cloudy 77 25.2 61 16 57 57 SSW 8 13 30.03 1017 10 16.0934 N/A
1:15 pm 13:15 Cloudy 80 26.5 62 16.7 55 55 S 8 13 30.03 1017 10 16.0934 N/A
1:35 pm 13:35 Cloudy 80 26.5 62 16.5 54 54 SSW 12 19 30.03 1017 10 16.0934 N/A
1:55 pm 13:55 Cloudy 80 26.5 63 17.3 57 57 S 9 15 30.03 1017 10 16.0934 N/A
2:15 pm 14:15 Cloudy 80 26.5 62 16.9 56 56 SSW 10 17 30 1016 10 16.0934 N/A
2:35 pm 14:35 Mostly Cloudy 80 26.5 63 17 56 56 SSE 7 11 30 1016 10 16.0934 N/A
2:55 pm 14:55 Cloudy 80 26.5 64 17.6 58 58 S 8 13 30 1016 10 16.0934 N/A
3:15 pm 15:15 Mostly Cloudy 80 26.5 63 17.3 57 57 SW 8 13 30 1016 10 16.0934 N/A
3:35 pm 15:35 Mostly Cloudy 80 26.5 64 17.8 59 59 SW 10 17 30 1016 10 16.0934 N/A
3:55 pm 15:55 Mostly Cloudy 80 26.4 66 18.9 63 63 SSE 5 7 29.97 1015 10 16.0934 N/A
4:15 pm 16:15 Mostly Cloudy with Light Rain 77 25.1 64 18 65 65 SSE 9 15 29.97 1015 10 16.0934 N/A
4:35 pm 16:35 Partly Cloudy with Light Rain 77 25.1 66 18.7 68 68 S 9 15 29.94 1014 10 16.0934 N/A
4:55 pm 16:55 Sunny 74 23.6 64 17.8 70 70 S 7 11 29.97 1015 10 16.0934 N/A
5:15 pm 17:15 Sunny 77 25.1 63 17.2 62 62 SSW 10 17 29.97 1015 10 16.0934 N/A
5:35 pm 17:35 Sunny 77 25.1 64 17.6 63 63 S 14 22 29.97 1015 10 16.0934 N/A
5:55 pm 17:55 Sunny 77 25.1 61 16.3 58 58 S 12 19 29.97 1015 10 16.0934 N/A
6:15 pm 18:15 Sunny 77 25.1 61 16.2 58 58 S 8 13 29.97 1015 10 16.0934 N/A
6:35 pm 18:35 Sunny 74 23.6 60 15.5 61 61 SSW 8 13 29.97 1015 10 16.0934 N/A
6:55 pm 18:55 Sunny 74 23.6 60 15.3 60 60 S 8 13 29.97 1015 10 16.0934 N/A
7:15 pm 19:15 Sunny 74 23.6 60 15.5 61 61 SSE 6 9 29.94 1014 10 16.0934 N/A
7:35 pm 19:35 Sunny 74 23.6 61 16.1 63 63 S 8 13 29.94 1014 10 16.0934 N/A
7:55 pm 19:55 Sunny 74 23.6 61 16.1 63 63 S 9 15 29.94 1014 10 16.0934 N/A
8:15 pm 20:15 Sunny 74 23.6 63 17 67 67 S 9 15 29.94 1014 10 16.0934 N/A
8:35 pm 20:35 Sunny 74 23.6 63 17.1 67 67 S 7 11 29.94 1014 10 16.0934 N/A
8:55 pm 20:55 Clear 74 23.6 64 17.7 70 70 S 8 13 29.94 1014 10 16.0934 N/A
9:15 pm 21:15 Clear 71 21.9 62 16.8 73 73 SSW 3 6 29.94 1014 10 16.0934 N/A
9:35 pm 21:35 Clear 69 20.8 62 16.5 77 77 SSW 6 9 29.97 1015 10 16.0934 N/A
9:55 pm 21:55 Clear 69 20.8 62 16.5 77 77 SW 3 6 30 1016 10 16.0934 N/A
10:15 pm 22:15 Clear 69 20.8 60 15.8 73 73 SSW 8 13 30 1016 10 16.0934 N/A
10:35 pm 22:35 Clear 69 20.8 61 16 74 74 SSW 6 9 30 1016 10 16.0934 N/A
10:55 pm 22:55 Clear 69 20.8 61 16 74 74 S 6 9 30 1016 10 16.0934 N/A
11:15 pm 23:15 Clear 69 20.8 61 16.1 75 75 N N/A 30 1016 10 16.0934 N/A
11:35 pm 23:35 Clear 69 20.8 62 16.4 76 76 N N/A 30 1016 10 16.0934 N/A
11:55 pm 23:55 Clear 69 20.8 62 16.5 77 77 N N/A 30 1016 10 16.0934 N/A

Powered by AerisWeather